This is the latest recevied weather packets stored in our database for station/object DL4MGC-10. If no packets are shown the sender has not sent any weather packets the latest 10 day(s).
| Time | Temp. | Humidity | Pressure | Rain* | Wind** | Luminosity | Snow |
|---|---|---|---|---|---|---|---|
| 1788375432 | 22.22° C | 72% | 1020.9 hPa | - | - | - | - |
| 1788374532 | 22.22° C | 69% | 1020.7 hPa | - | - | - | - |
| 1788373632 | 22.78° C | 65% | 1020.5 hPa | - | - | - | - |
| 1788372732 | 23.33° C | 65% | 1020.3 hPa | - | - | - | - |
| 1788371832 | 23.33° C | 61% | 1020.1 hPa | - | - | - | - |
| 1788370932 | 23.89° C | 60% | 1019.9 hPa | - | - | - | - |
| 1788370032 | 23.89° C | 60% | 1019.7 hPa | - | - | - | - |
| 1788369132 | 24.44° C | 58% | 1019.7 hPa | - | - | - | - |
| 1788368232 | 25° C | 58% | 1019.7 hPa | - | - | - | - |
| 1788367331 | 25° C | 57% | 1019.7 hPa | - | - | - | - |
| 1788366431 | 25° C | 56% | 1019.7 hPa | - | - | - | - |
| 1788365531 | 25.56° C | 55% | 1019.7 hPa | - | - | - | - |
| 1788364652 | 26.11° C | 53% | 1019.6 hPa | - | - | - | - |
| 1788363731 | 26.11° C | 53% | 1019.5 hPa | - | - | - | - |
| 1788362831 | 26.11° C | 54% | 1019.5 hPa | - | - | - | - |
| 1788361931 | 26.67° C | 52% | 1019.7 hPa | - | - | - | - |
| 1788361031 | 26.11° C | 52% | 1019.8 hPa | - | - | - | - |
| 1788360131 | 25.56° C | 54% | 1019.9 hPa | - | - | - | - |
| 1788359230 | 26.67° C | 53% | 1019.9 hPa | - | - | - | - |
| 1788358330 | 26.11° C | 53% | 1020 hPa | - | - | - | - |
| 1788357430 | 26.11° C | 51% | 1020 hPa | - | - | - | - |
| 1788356530 | 27.22° C | 50% | 1020 hPa | - | - | - | - |
| 1788355630 | 26.67° C | 51% | 1020.1 hPa | - | - | - | - |
| 1788354730 | 27.22° C | 53% | 1020.4 hPa | - | - | - | - |
| 1788353830 | 26.67° C | 53% | 1020.4 hPa | - | - | - | - |
* Rain since midnight (hover to see other rain measurements)
** Current wind speed in m/s (hover to see current wind gust speed)